Time,TemperatureF,DewpointF,PressureIn,WindDirection,WindDirectionDegrees,WindSpeedMPH,WindSpeedGustMPH,Humidity,HourlyPrecipIn,Conditions,Clouds,dailyrainin,SoftwareType,DateUTC
2013-10-09 00:09:00,51.5,44.0,30.31,NNE,29,0.0,-999.0,76,-99.99,,,0.00,weatherlink.com 1.10,2013-10-09 04:09:00,
2013-10-09 00:24:00,50.9,44.0,30.30,NNE,29,0.0,-999.0,76,-99.99,,,0.00,weatherlink.com 1.10,2013-10-09 04:24:00,
2013-10-09 00:39:00,50.4,43.0,30.30,NNE,29,0.0,-999.0,77,-99.99,,,0.00,weatherlink.com 1.10,2013-10-09 04:39:00,
2013-10-09 00:54:00,50.1,43.0,30.30,NNE,22,0.0,-999.0,77,-99.99,,,0.00,weatherlink.com 1.10,2013-10-09 04:54:00,
2013-10-09 01:09:00,49.8,43.0,30.30,NNE,22,0.0,-999.0,77,-99.99,,,0.00,weatherlink.com 1.10,2013-10-09 05:09:00,
2013-10-09 01:24:00,49.5,43.0,30.30,NNE,22,0.0,-999.0,77,-99.99,,,0.00,weatherlink.com 1.10,2013-10-09 05:24:00,
2013-10-09 01:39:00,49.2,42.0,30.30,NNE,22,0.0,-999.0,77,-99.99,,,0.00,weatherlink.com 1.10,2013-10-09 05:39:00,
2013-10-09 01:55:00,49.1,42.0,30.29,NE,40,0.0,-999.0,77,-99.99,,,0.00,weatherlink.com 1.10,2013-10-09 05:55:00,
2013-10-09 02:10:00,49.1,42.0,30.29,NE,40,0.0,-999.0,77,-99.99,,,0.00,weatherlink.com 1.10,2013-10-09 06:10:00,
2013-10-09 02:25:00,49.0,42.0,30.29,NE,51,0.0,-999.0,77,-99.99,,,0.00,weatherlink.com 1.10,2013-10-09 06:25:00,
2013-10-09 02:40:00,48.6,42.0,30.29,NE,51,0.0,-999.0,78,-99.99,,,0.00,weatherlink.com 1.10,2013-10-09 06:40:00,
2013-10-09 02:55:00,48.4,42.0,30.28,NE,51,0.0,-999.0,78,-99.99,,,0.00,weatherlink.com 1.10,2013-10-09 06:55:00,
2013-10-09 03:10:00,48.0,42.0,30.28,NE,51,0.0,-999.0,79,-99.99,,,0.00,weatherlink.com 1.10,2013-10-09 07:10:00,
2013-10-09 03:25:00,47.6,41.0,30.28,NE,51,0.0,-999.0,79,-99.99,,,0.00,weatherlink.com 1.10,2013-10-09 07:25:00,
2013-10-09 03:40:00,47.6,42.0,30.28,NE,51,0.0,-999.0,80,-99.99,,,0.00,weatherlink.com 1.10,2013-10-09 07:40:00,
2013-10-09 03:55:00,47.6,41.0,30.28,NE,51,0.0,-999.0,79,-99.99,,,0.00,weatherlink.com 1.10,2013-10-09 07:55:00,
2013-10-09 04:10:00,47.6,41.0,30.28,NE,51,0.0,-999.0,79,-99.99,,,0.00,weatherlink.com 1.10,2013-10-09 08:10:00,
2013-10-09 04:25:00,47.5,41.0,30.29,NE,55,0.0,-999.0,79,-99.99,,,0.00,weatherlink.com 1.10,2013-10-09 08:25:00,
2013-10-09 04:41:00,47.2,41.0,30.29,NE,55,0.0,-999.0,80,-99.99,,,0.00,weatherlink.com 1.10,2013-10-09 08:41:00,
2013-10-09 04:56:00,46.9,41.0,30.29,NE,55,0.0,-999.0,80,-99.99,,,0.00,weatherlink.com 1.10,2013-10-09 08:56:00,
2013-10-09 05:11:00,46.7,41.0,30.29,NNW,332,0.0,-999.0,80,-99.99,,,0.00,weatherlink.com 1.10,2013-10-09 09:11:00,
2013-10-09 05:26:00,46.6,41.0,30.30,NNW,332,0.0,-999.0,81,-99.99,,,0.00,weatherlink.com 1.10,2013-10-09 09:26:00,
2013-10-09 05:41:00,46.6,41.0,30.30,NNW,332,0.0,-999.0,82,-99.99,,,0.00,weatherlink.com 1.10,2013-10-09 09:41:00,
2013-10-09 05:56:00,46.7,42.0,30.29,NNW,334,0.0,-999.0,82,-99.99,,,0.00,weatherlink.com 1.10,2013-10-09 09:56:00,
2013-10-09 06:11:00,46.8,41.0,30.29,NE,47,0.0,-999.0,81,-99.99,,,0.00,weatherlink.com 1.10,2013-10-09 10:11:00,
2013-10-09 06:26:00,47.0,41.0,30.29,East,93,0.0,-999.0,81,-99.99,,,0.00,weatherlink.com 1.10,2013-10-09 10:26:00,
2013-10-09 06:41:00,47.0,41.0,30.29,East,93,0.0,-999.0,80,-99.99,,,0.00,weatherlink.com 1.10,2013-10-09 10:41:00,
2013-10-09 06:56:00,46.8,41.0,30.30,West,269,0.0,-999.0,80,-99.99,,,0.00,weatherlink.com 1.10,2013-10-09 10:56:00,
2013-10-09 07:11:00,46.7,42.0,30.30,West,276,0.0,-999.0,84,-99.99,,,0.00,weatherlink.com 1.10,2013-10-09 11:11:00,
2013-10-09 07:26:00,46.5,41.0,30.30,West,276,0.0,-999.0,80,-99.99,,,0.00,weatherlink.com 1.10,2013-10-09 11:26:00,
2013-10-09 07:41:00,46.4,41.0,30.31,West,274,0.0,-999.0,80,-99.99,,,0.00,weatherlink.com 1.10,2013-10-09 11:41:00,
2013-10-09 07:57:00,46.6,41.0,30.31,East,83,0.0,-999.0,80,-99.99,,,0.00,weatherlink.com 1.10,2013-10-09 11:57:00,
2013-10-09 08:12:00,46.9,41.0,30.31,East,82,0.0,-999.0,80,-99.99,,,0.00,weatherlink.com 1.10,2013-10-09 12:12:00,
2013-10-09 08:27:00,47.3,41.0,30.31,ENE,63,0.0,-999.0,80,-99.99,,,0.00,weatherlink.com 1.10,2013-10-09 12:27:00,
2013-10-09 08:42:00,47.8,42.0,30.32,ENE,59,0.0,-999.0,79,-99.99,,,0.00,weatherlink.com 1.10,2013-10-09 12:42:00,
2013-10-09 08:57:00,48.4,42.0,30.33,ENE,57,0.0,-999.0,78,-99.99,,,0.00,weatherlink.com 1.10,2013-10-09 12:57:00,
2013-10-09 09:12:00,49.9,43.0,30.33,ENE,74,6.0,-999.0,76,-99.99,,,0.00,weatherlink.com 1.10,2013-10-09 13:12:00,
2013-10-09 09:27:00,51.7,44.0,30.34,NE,44,1.0,-999.0,74,-99.99,,,0.00,weatherlink.com 1.10,2013-10-09 13:27:00,
2013-10-09 09:42:00,53.5,43.0,30.34,East,84,5.0,-999.0,68,-99.99,,,0.00,weatherlink.com 1.10,2013-10-09 13:42:00,
2013-10-09 09:57:00,55.2,43.0,30.34,ESE,113,2.0,-999.0,64,-99.99,,,0.00,weatherlink.com 1.10,2013-10-09 13:57:00,
2013-10-09 10:12:00,56.2,42.0,30.34,ESE,117,0.0,-999.0,60,-99.99,,,0.00,weatherlink.com 1.10,2013-10-09 14:12:00,
2013-10-09 10:28:00,57.3,41.0,30.33,South,187,5.0,-999.0,55,-99.99,,,0.00,weatherlink.com 1.10,2013-10-09 14:28:00,
2013-10-09 10:43:00,58.1,40.0,30.33,ESE,122,1.0,-999.0,52,-99.99,,,0.00,weatherlink.com 1.10,2013-10-09 14:43:00,
2013-10-09 10:58:00,58.8,41.0,30.33,ESE,117,2.0,-999.0,52,-99.99,,,0.00,weatherlink.com 1.10,2013-10-09 14:58:00,
2013-10-09 11:13:00,59.5,42.0,30.33,SE,146,2.0,-999.0,52,-99.99,,,0.00,weatherlink.com 1.10,2013-10-09 15:13:00,
2013-10-09 11:28:00,60.3,41.0,30.33,ENE,57,5.0,-999.0,49,-99.99,,,0.00,weatherlink.com 1.10,2013-10-09 15:28:00,
2013-10-09 11:43:00,61.0,41.0,30.32,ENE,74,2.0,-999.0,48,-99.99,,,0.00,weatherlink.com 1.10,2013-10-09 15:43:00,
2013-10-09 11:58:00,61.3,41.0,30.32,NE,40,5.0,-999.0,48,-99.99,,,0.00,weatherlink.com 1.10,2013-10-09 15:58:00,
2013-10-09 12:13:00,61.7,41.0,30.32,ESE,103,0.0,-999.0,47,-99.99,,,0.00,weatherlink.com 1.10,2013-10-09 16:13:00,
2013-10-09 12:28:00,62.2,41.0,30.31,NNE,24,0.0,-999.0,46,-99.99,,,0.00,weatherlink.com 1.10,2013-10-09 16:28:00,
2013-10-09 12:44:00,62.8,40.0,30.30,South,188,2.0,-999.0,44,-99.99,,,0.00,weatherlink.com 1.10,2013-10-09 16:44:00,
2013-10-09 12:59:00,63.1,40.0,30.29,East,89,5.0,-999.0,43,-99.99,,,0.00,weatherlink.com 1.10,2013-10-09 16:59:00,
2013-10-09 13:14:00,63.5,39.0,30.29,NE,47,2.0,-999.0,41,-99.99,,,0.00,weatherlink.com 1.10,2013-10-09 17:14:00,
2013-10-09 13:29:00,63.9,40.0,30.28,NNE,25,1.0,-999.0,41,-99.99,,,0.00,weatherlink.com 1.10,2013-10-09 17:29:00,
2013-10-09 13:44:00,64.3,42.0,30.27,ENE,67,2.0,-999.0,44,-99.99,,,0.00,weatherlink.com 1.10,2013-10-09 17:44:00,
2013-10-09 13:59:00,64.8,39.0,30.26,ESE,107,1.0,-999.0,39,-99.99,,,0.00,weatherlink.com 1.10,2013-10-09 17:59:00,
2013-10-09 14:14:00,65.1,39.0,30.25,ENE,67,2.0,-999.0,38,-99.99,,,0.00,weatherlink.com 1.10,2013-10-09 18:14:00,
2013-10-09 14:29:00,65.2,38.0,30.25,East,81,6.0,-999.0,37,-99.99,,,0.00,weatherlink.com 1.10,2013-10-09 18:29:00,
2013-10-09 14:44:00,65.7,39.0,30.24,ENE,60,5.0,-999.0,37,-99.99,,,0.00,weatherlink.com 1.10,2013-10-09 18:44:00,
2013-10-09 14:59:00,66.1,41.0,30.23,ENE,74,1.0,-999.0,40,-99.99,,,0.00,weatherlink.com 1.10,2013-10-09 18:59:00,
2013-10-09 15:15:00,66.4,40.0,30.23,ENE,63,4.0,-999.0,38,-99.99,,,0.00,weatherlink.com 1.10,2013-10-09 19:15:00,
2013-10-09 15:30:00,66.4,39.0,30.23,NNE,21,4.0,-999.0,36,-99.99,,,0.00,weatherlink.com 1.10,2013-10-09 19:30:00,
2013-10-09 15:45:00,66.4,39.0,30.23,ENE,77,0.0,-999.0,37,-99.99,,,0.00,weatherlink.com 1.10,2013-10-09 19:45:00,
2013-10-09 16:00:00,66.7,39.0,30.23,ESE,103,0.0,-999.0,37,-99.99,,,0.00,weatherlink.com 1.10,2013-10-09 20:00:00,
2013-10-09 16:15:00,66.8,39.0,30.23,NNE,20,0.0,-999.0,36,-99.99,,,0.00,weatherlink.com 1.10,2013-10-09 20:15:00,
2013-10-09 16:30:00,67.0,40.0,30.23,NNE,32,4.0,-999.0,37,-99.99,,,0.00,weatherlink.com 1.10,2013-10-09 20:30:00,
2013-10-09 16:45:00,67.1,41.0,30.23,ENE,63,1.0,-999.0,39,-99.99,,,0.00,weatherlink.com 1.10,2013-10-09 20:45:00,
2013-10-09 17:00:00,66.8,41.0,30.23,ENE,77,0.0,-999.0,39,-99.99,,,0.00,weatherlink.com 1.10,2013-10-09 21:00:00,
2013-10-09 17:15:00,66.4,41.0,30.22,WNW,282,0.0,-999.0,39,-99.99,,,0.00,weatherlink.com 1.10,2013-10-09 21:15:00,
2013-10-09 17:30:00,66.1,42.0,30.22,NE,47,0.0,-999.0,41,-99.99,,,0.00,weatherlink.com 1.10,2013-10-09 21:30:00,
2013-10-09 17:45:00,65.8,42.0,30.22,NE,50,0.0,-999.0,42,-99.99,,,0.00,weatherlink.com 1.10,2013-10-09 21:45:00,
2013-10-09 18:00:00,65.3,45.0,30.22,SE,134,0.0,-999.0,48,-99.99,,,0.00,weatherlink.com 1.10,2013-10-09 22:00:00,
2013-10-09 18:16:00,64.6,44.0,30.22,East,86,0.0,-999.0,48,-99.99,,,0.00,weatherlink.com 1.10,2013-10-09 22:16:00,
2013-10-09 18:31:00,63.7,47.0,30.22,NE,50,0.0,-999.0,54,-99.99,,,0.00,weatherlink.com 1.10,2013-10-09 22:31:00,
2013-10-09 18:46:00,62.7,49.0,30.22,ESE,107,0.0,-999.0,61,-99.99,,,0.00,weatherlink.com 1.10,2013-10-09 22:46:00,
2013-10-09 19:01:00,61.2,48.0,30.22,ESE,107,0.0,-999.0,63,-99.99,,,0.00,weatherlink.com 1.10,2013-10-09 23:01:00,
2013-10-09 19:16:00,60.0,48.0,30.22,ESE,107,0.0,-999.0,65,-99.99,,,0.00,weatherlink.com 1.10,2013-10-09 23:16:00,
2013-10-09 19:31:00,58.8,48.0,30.22,ESE,103,0.0,-999.0,67,-99.99,,,0.00,weatherlink.com 1.10,2013-10-09 23:31:00,
2013-10-09 19:46:00,57.7,48.0,30.23,East,93,0.0,-999.0,69,-99.99,,,0.00,weatherlink.com 1.10,2013-10-09 23:46:00,
2013-10-09 20:01:00,56.9,47.0,30.24,ESE,117,0.0,-999.0,70,-99.99,,,0.00,weatherlink.com 1.10,2013-10-10 00:01:00,
2013-10-09 20:16:00,56.3,47.0,30.24,ESE,117,0.0,-999.0,72,-99.99,,,0.00,weatherlink.com 1.10,2013-10-10 00:16:00,
2013-10-09 20:31:00,55.7,47.0,30.24,ESE,117,0.0,-999.0,73,-99.99,,,0.00,weatherlink.com 1.10,2013-10-10 00:31:00,
2013-10-09 20:46:00,55.2,47.0,30.24,ESE,117,0.0,-999.0,73,-99.99,,,0.00,weatherlink.com 1.10,2013-10-10 00:46:00,
2013-10-09 21:01:00,54.7,47.0,30.24,ESE,117,0.0,-999.0,74,-99.99,,,0.00,weatherlink.com 1.10,2013-10-10 01:01:00,
2013-10-09 21:16:00,54.1,46.0,30.24,ESE,117,0.0,-999.0,75,-99.99,,,0.00,weatherlink.com 1.10,2013-10-10 01:16:00,
2013-10-09 21:31:00,53.6,46.0,30.25,SW,230,0.0,-999.0,76,-99.99,,,0.00,weatherlink.com 1.10,2013-10-10 01:31:00,
2013-10-09 21:47:00,53.3,46.0,30.25,WSW,240,0.0,-999.0,76,-99.99,,,0.00,weatherlink.com 1.10,2013-10-10 01:47:00,
2013-10-09 22:02:00,53.1,45.0,30.25,SE,124,0.0,-999.0,75,-99.99,,,0.00,weatherlink.com 1.10,2013-10-10 02:02:00,
2013-10-09 22:17:00,53.0,46.0,30.25,ENE,66,0.0,-999.0,76,-99.99,,,0.00,weatherlink.com 1.10,2013-10-10 02:17:00,
2013-10-09 22:32:00,52.7,45.0,30.25,East,81,4.0,-999.0,75,-99.99,,,0.00,weatherlink.com 1.10,2013-10-10 02:32:00,
2013-10-09 22:47:00,52.4,45.0,30.25,East,81,0.0,-999.0,76,-99.99,,,0.00,weatherlink.com 1.10,2013-10-10 02:47:00,
2013-10-09 23:02:00,52.1,45.0,30.24,East,98,0.0,-999.0,76,-99.99,,,0.00,weatherlink.com 1.10,2013-10-10 03:02:00,
2013-10-09 23:32:00,51.6,44.0,30.25,East,98,0.0,-999.0,76,-99.99,,,0.00,weatherlink.com 1.10,2013-10-10 03:32:00,
2013-10-09 23:47:00,51.2,44.0,30.24,ESE,103,0.0,-999.0,76,-99.99,,,0.00,weatherlink.com 1.10,2013-10-10 03:47:00,